Starlink 11419

operational
NORAD ID: 62883 Int'l Des: 2025-024 Owner: SPXS Country: US Constellation: starlink
LEOCIRCULAR

About Starlink 11419

Description loading...

Live Position

Loading 3D Globe...

Upcoming Passes

Altitude History

Altitude vs Time

uPlot chart will show altitude changes over time

Two-Line Element Set

1 62883U 25024E 26036.30673404 .00285749 00000-0 21488-2 0 9994
2 62883 43.0002 16.6497 0001527 285.9400 74.1300 15.70905626 58373
Epoch: Feb 5, 2026 • Age: 17 hours

Current Status

Altitude 357.1 km
Velocity 7.70 km/s
Sub-Earth Point -13.53°S, 139.46°W
Launch Date Feb 4, 2025
Age 1 years
Type internet

Technical Details

Classification Payload
Mass 960.00 kg
Dry Mass 910.00 kg
Total Mass 960.00 kg
Length 0.30 m
Diameter 4.10 m
Span 29.00 m
Shape Box + pan
Manufacturer SPXS
Bus Type Starlink V2MD
Phase Status In Orbit
Owner/State SPXS/US

Large Constellations

Loading constellations...